Weather in Istobnoye

Russia / Lipetsk Oblast     53°08′34″N   39°57′53″E
temp.,
°C
wind,
m/s
gust,
m/s
humid.,
%
clouds,
%
prec.,
mm/h
press.,
hPa
HPBL,
m
17 may, tue
tue1700:00+6w411850 0.0 1008248
03:00+5w511885 0.0 1007307
06:00+5w61287100 0.0 1006528
09:00+9w71074100 0.0 10051124
12:00+7wnw71288100 1.4 10041271
15:00+7wnw71091100 1.5 10041001
18:00+6wnw61092100 0.5 1005759
21:00+6wnw61193100 0.6 1005532
18 may, wed
wed1800:00+6w5996100 0.0 1004366
03:00+7wnw3697100 0.4 1004294
06:00+8n4798100 0.4 1006328
09:00+8n469470 1.1 1008485
12:00+9n589082 0.4 1011650
15:00+12nnw577170 0.7 10121161
18:00+13nnw47646 0.2 10121240
21:00+9nnw5117427 0.2 1014355
19 may, thu
thu1900:00+7nnw5118589 0.0 1016316
03:00+5nw499030 0.0 1017234
06:00+5wnw378562 0.0 1017218
09:00+11w696165 0.0 1016885
12:00+14w81153100 0.1 10152200
15:00+14nw81266100 0.8 10141811
18:00+11nnw597688 0.3 10161128
21:00+7nw228573 0.3 101619
20 may, fri
fri2000:00+6w228693 0.0 101623
03:00+7wnw238783 0.1 101652
06:00+7n358924 0.3 1017243
09:00+10nne44679 0.3 1018824
12:00+12n455549 0.0 10181701
15:00+11n555578 0.1 10181445
18:00+11n345799 0.0 10171514
21:00+7e2263100 0.0 101719
21 may, sat
sat2100:00+5se336494 0.0 101635
03:00+5ese3660100 0.0 1015120
06:00+6e4769100 0.0 1014220
09:00+8e5864100 0.0 1012521
12:00+9ese6958100 0.1 10121498
15:00+9e5664100 0.1 10111196
18:00+10ene356890 0.2 1011876
21:00+6nne35845 0.4 101287